{"data":{"norad_id":68402,"epoch":"2026-05-25T03:41:08.703744Z","epoch_age_seconds":64846,"freshness":"FRESH","line1":"1 68402U 26063Y   26145.15357296  .00018631  00000+0  57778-3 0  9998","line2":"2 68402  97.2857 287.7190 0001548  84.0931 276.0488 15.33457069  9611","mean_motion":15.33457069,"eccentricity":0.0001548,"inclination_deg":97.2857,"raan_deg":287.719,"arg_perigee_deg":84.0931,"mean_anomaly_deg":276.0488,"bstar":0.00057778,"rev_number":961,"period_min":93.905465572574,"perigee_km":464.44786972855,"apogee_km":466.56666199327,"semimajor_km":6843.6442658609,"source":"CELESTRAK","updated_at":"2026-05-25T13:38:21.951429Z"}}